Погода Фролово

Погода Фролово : погода сейчас, прогноз погоды и архив. Всё, что Вы хотите узнать о погоде Фролово!

Поиск расширенной информации на нашем сайте:

Другие новости

Новости СМИ2

Главная страница сайта

Новости сайта

02.10.2013

Напоминаем, что на нашем новом сайте вы можете получить высокодетализированные прогнозы погоды по пунктам России, СНГ и мира (включающие важные для авиации метеовеличины, такие как направление и скорость ветра, видимость, явления погоды, количество и форма облачности, нижняя и верхняя граница облачности), а также ознакомиться с разнообразными материалами по авиационной метеорологии и подборкой полезных ссылок на эту тему.

Сайт Метеоцентр.Азия посвящён разработке технологий оптимизации авиаметеорологического обслуживания, включая проектирование и перспективное создание нескольких автоматизированных авиаметеорологических систем:
- система выпуска высокодетальных прогностических карт явлений погоды для нижнего воздушного пространства по России и ближнему зарубежью;
- система верификации прогнозов TAF (выпускаемых синоптиками официальных АМСГ РФ и ближнего зарубежья) и AUTOTAF (выпускаемых сайтом Метеоцентр.Азия) - выявление ошибок, онлайн-сопоставление с фактической погодой METAR, автоматическое внесение коррективов в прогнозы при резком отклонении фактической погоды от прогноза, подсчёт оправдываемости прогнозов по элементам и в целом;
- система обработки, анализа и отображения авиаметеорологической информации для применения провайдерами метеорологической информации.


Погода Фролово - сегодня

Время (UTC), дата Ветер
(°,м/с) 
Видим.   Явления Облачность Т
(°С)
Тd
(°С)
f(%) Тe
(°С)
Pmin
(гПа)
dP
(гПа)
Po
(мм)
O2
(г/м3)
Тmin Tmax R s Состояние
почвы
09 26.04.17 210 (ЮЗ) 5{10}  10 км    8/6 600 м верхняя 
[Cu hum|Ci fib]
+15.1 -1.2 33 +15  1029.1  -0.3  761  291           
12 26.04.17 220 (ЮЗ) 3{10}  10 км    8/8 600 м 
[Cu hum]
+16.2 -0.9 31 +17  1028.7  -0.4  761  289           
15 26.04.17 210 (ЮЗ) 10 км    ясно 
+15.1 -0.2 35 +15  1028.3  -0.5  760  290    +16.6       
18 26.04.17 180 (Ю) 20000 м    ясно 
+10.2 +2.9 60 +10  1029  0.5  761  295           
21 26.04.17 150 (ЮВ) 20000 м    ясно 
+7.1 +0.9 65 +7  1029.7  0.6  761  299           
00 27.04.17 160 (Ю) 20000 м    ясно 
+6.2 +0.2 65 +5  1030  0.6  761  300           
03 27.04.17 160 (Ю) 10 км    4/0 верхняя 
[Cs]
+6 +0.1 66 +5  1031  762  300  +4.8        влажная 
06 27.04.17 180 (Ю) 6-10{10}  10 км    3/0 верхняя 
[Ci fib]
+13.9 -2.8 31 +13  1031  0.4  762  293           
09 27.04.17 180 (Ю) 6-11{13}  10 км    ясно 
+17.2 -7 18 +17  1029.7  -1.1  762  289           
12 27.04.17 170 (Ю) 5-10{12}  10 км    ясно 
+18.4 -3.8 22 +19  1028.6  -1  761  288           
15 27.04.17 170 (Ю) 6-10{12}  10 км    4/0 верхняя 
[Cs]
+17.7 -2.3 25 +18  1027.2  -1.4  760  288    +18.8       
18 27.04.17 160 (Ю) 4{11}  20000 м    ясно 
+12.9 -0.1 41 +12  1028  0.6  760  292           
21 27.04.17 170 (Ю) 20000 м    ясно 
+10.1 -0.7 47 +10  1028.9  0.7  761  296           
00 28.04.17 130 (ЮВ) 20000 м    ясно 
+8.2 -1 52 +8  1028.4  -0.6  760  298           
03 28.04.17 130 (ЮВ) 10 км    ясно 
+7.7 -0.5 56 +8  1028.8  0.4  761  298  +6.8        влажная 
06 28.04.17 140 (ЮВ) 10 км    ясно 
+14.7 +0.7 38 +15  1028.3  -0.2  760  291           
09 28.04.17 150 (ЮВ) 10 км    ясно 
+20.7 +0.7 26 +21  1026.1  -1.8  759  284           
12 28.04.17 150 (ЮВ) 5-10{13}  10 км    ясно 
+22.2 +0.4 24 +22  1024.5  -1.5  758  282           
15 28.04.17 130 (ЮВ) 4{12}  10 км    ясно 
+20.3 +0.1 26 +20  1023.7  -0.9  757  284    +22.2       
18 28.04.17 140 (ЮВ) 20000 м    ясно 
+14.8 -0.1 36 +15  1024.4  0.5  758  290           
21 28.04.17 100 (В) 20000 м    ясно 
+11.1 -0.3 45 +11  1025  0.5  758  293           
00 29.04.17 090 (В) 20000 м    ясно 
+9.5 +0.4 53 +9  1024  -1  757  295           
03 29.04.17 100 (В) 10 км    ясно 
+9 +1.7 60 +8  1023.2  -0.8  756  295  +8.1        сухая 
06 29.04.17 150 (ЮВ) 5{11}  10 км    ясно 
+15.4 +2 40 +15  1022.7  -0.2  756  288           
09 29.04.17 150 (ЮВ) 6-11{12}  10 км    ясно 
+20.2 +1.7 29 +20  1021.7  -0.7  756  283           
Время (UTC), дата Ветер
(°,м/с) 
Видим.   Явления Облачность Т
(°С)
Тd
(°С)
f(%) Тe
(°С)
Pmin
(гПа)
dP
(гПа)
Po
(мм)
O2
(г/м3)
Тmin Tmax R s Состояние
почвы

Для получения пояснительной информации подведите курсор к названию столбца.

ПОГОДА Фролово - архив

Всё, что Вы хотите узнать о погоде Фролово - удобно и подробно!

Выберите нужную дату (начиная с 1 января 2015* года) и нажмите кнопку "Найти".
Будут отображены архивные сводки погоды по пункту Фролово, начиная с указанной даты.


Отображать данные в формате CSV (для использования в таблицах Excel)


Внимание! Наш архив погоды предназначен исключительно для личного некоммерческого использования в познавательных целях. Если Вам необходимы официальные справки о состоянии погоды (для производственных, юридических, коммерческих и т.п. целей), обращайтесь в органы Росгидромета.

*Примечание: данная дата относится к архиву по метеостанциям СССР (Россия, СНГ, Балтия).
Архив по метеостанциям Зарубежной Европы и Азии (кроме Китая) хранится 10 дней, по другим регионам земного шара (Китай, Африка, Америка, Австралия, Океания) - 1 день.

Фролово - район местоположения метеостанции


Название, широта, долгота, высота метеостанции:
Фролово 49.8°ш. 43.7°д. 119 м над ур. моря [Российская Федерация]

Дополнительная информация

В oтличие oт бoльшинства пoгoдных сайтoв мы публикуем пoдрoбную метеoинфoрмацию в детальнoм прoфессиoнальнoм фoрмате.

Характеристики температуры и влажнoсти вoздуха измеряются на высoте 2 м в тени вдали oт зданий и деревьев.
Скoрoсть ветра измеряется на высoте 10 м (на урoвне рoста челoвека скoрoсть ветра ниже в 1.5-2 раза). Если метеoстанция нахoдится в гoрoде или в лесу, тo скoрoсть ветра занижена на 2-4 м/с пo сравнению с oткрытым местoм. Скoрoсть ветра над акватoриями крупных рек и oзёр, а также на вершинах хoлмoв на 2-5 м/с выше, чем в oбычных услoвиях.
Атмoсфернoе давление в разных тoчках местнoсти мoжет значительнo oтличаться oт давления на метеoстанции, в зависимoсти oт услoвий рельефа (при пoдъёме на 10 м давление пoнижается примернo на 1 мм рт.ст.).